Wind_Speed
22 22 22 21 21 20 20 20 20 19 19 19 19 19 20 20 20 20 20 20 20 20 20 20 20 20 19 19 19 19 19 19 19 20 20 20 20 20 19 19 19 19 20
22 22 22 22 22 21 21 21 20 20 20 20 20 21 21 20 21 21 21 21 21 21 21 21 21 21 22 22 22 21 21 21 21 21 22 22 22 21 21 21 20 20 20
23 23 23 23 23 22 22 22 21 21 21 21 21 21 21 20 21 22 22 22 22 22 22 22 23 23 23 23 23 23 22 23 23 23 23 23 22 22 22 22 22 21 21
22 23 23 22 23 23 22 21 21 21 20 20 20 21 21 21 21 22 22 22 23 23 23 23 24 24 24 25 24 24 23 23 23 23 24 24 24 23 23 23 23 22 22
21 22 22 22 22 22 21 21 21 20 19 19 20 20 21 22 22 23 22 23 24 24 24 24 24 24 24 25 24 25 25 24 23 23 23 24 24 24 24 24 23 23 23
20 20 21 21 21 21 20 20 20 18 18 18 19 20 21 21 22 22 23 23 24 24 24 25 24 25 24 24 25 25 25 24 24 24 24 25 24 24 24 25 24 24 24
20 21 20 20 20 20 19 19 18 17 18 18 18 19 19 20 21 21 21 23 23 23 24 24 24 24 25 24 25 25 25 25 25 25 25 26 25 25 26 26 26 25 25
20 19 19 19 18 18 18 17 17 17 18 18 19 20 20 20 20 21 21 22 22 22 22 23 23 23 24 25 25 25 25 25 26 26 26 26 26 27 27 27 27 26 25
19 18 18 18 18 17 17 17 17 18 18 18 19 20 20 20 21 21 21 21 21 22 22 23 24 24 24 25 25 25 26 26 26 27 26 26 27 27 27 27 27 26 26
19 18 18 18 18 18 17 17 18 18 18 19 19 20 20 20 21 22 21 21 22 22 23 23 24 25 25 25 25 26 26 26 27 27 26 26 27 27 26 26 26 25 25
19 19 18 18 19 19 19 19 19 20 20 19 19 20 20 21 21 22 22 22 22 23 24 24 25 25 25 25 25 25 25 26 26 27 27 27 26 26 26 25 25 25 25
19 19 19 19 19 20 20 20 20 20 20 19 20 20 21 22 22 23 23 23 24 24 25 25 25 26 26 26 26 26 26 26 26 26 26 27 27 26 26 25 25 25 25
20 20 20 20 20 21 21 21 21 21 20 20 21 22 22 23 23 23 24 25 26 26 27 27 27 27 28 28 28 27 27 27 26 26 26 26 27 27 27 27 27 27 26
22 21 21 21 21 21 21 21 22 22 22 22 22 23 23 24 24 24 25 25 26 27 27 28 28 28 29 29 29 29 28 28 28 27 27 28 28 28 28 28 27 27 27
23 23 22 22 22 22 22 22 22 23 23 23 23 23 24 24 25 25 26 26 26 27 28 28 29 29 29 30 30 29 29 29 28 28 27 27 28 28 29 29 29 29 28
24 23 23 23 23 23 22 22 22 23 22 23 23 24 25 26 27 27 27 28 28 28 28 28 28 28 28 29 29 30 30 30 30 29 29 28 27 27 28 29 29 30 29
22 22 22 22 22 22 23 22 23 23 23 23 24 25 26 27 28 28 28 28 29 28 28 27 27 27 28 28 29 30 30 30 30 29 29 29 28 28 29 29 29 29 29
21 20 21 22 21 21 21 22 23 23 23 23 25 26 26 27 27 27 27 27 28 27 27 27 27 27 28 29 29 30 30 31 31 30 30 30 30 30 30 30 30 30 30
20 19 20 20 20 20 21 22 22 22 23 23 24 25 25 26 26 26 26 26 26 27 27 28 28 28 29 29 29 30 30 31 31 31 31 31 31 31 31 31 31 31 31
19 19 19 19 20 20 21 22 22 22 23 23 23 24 24 24 25 25 25 26 26 26 27 28 29 29 29 29 29 30 30 31 31 31 32 32 32 32 32 32 32 31 31
20 20 20 20 21 21 22 22 22 22 22 22 22 23 24 24 24 24 24 25 25 25 26 27 27 29 29 29 30 30 30 31 32 32 32 32 33 33 33 33 32 32 32
21 21 21 21 21 22 22 22 22 22 22 22 23 23 23 23 23 23 23 23 23 24 24 25 26 27 28 28 29 29 30 31 32 32 33 33 33 33 33 33 33 33 33
20 21 21 21 22 22 22 22 22 22 23 23 23 24 24 23 23 23 23 23 24 24 25 26 26 26 27 28 29 29 30 30 31 31 32 32 32 33 33 34 34 35 35
21 22 22 21 21 21 22 22 22 22 23 23 23 23 23 22 23 24 24 24 24 24 24 25 25 25 26 27 27 28 28 29 29 30 31 31 32 33 33 34 34 35 36
21 22 22 22 22 22 22 23 24 24 24 24 24 24 23 23 23 24 24 24 23 23 24 24 24 24 25 26 27 27 28 28 28 29 29 30 31 32 33 34 34 35 35
22 22 22 22 22 23 24 24 24 24 24 24 24 24 24 23 23 23 23 23 23 23 24 24 24 25 25 25 25 26 26 26 27 28 29 30 31 31 32 33 34 34 34
Wind_Direction
273 274 275 275 275 273 275 277 275 273 271 268 265 264 264 259 256 253 251 252 252 252 252 253 252 252 253 256 258 261 264 262 261 260 261 264 266 266 268 268 268 267 266
276 274 274 274 274 274 274 275 274 271 269 267 265 264 263 262 259 255 252 252 252 254 254 254 254 256 256 258 259 260 263 262 260 260 261 264 266 267 267 267 267 267 265
276 274 274 273 272 272 274 273 272 271 269 266 264 262 263 264 261 258 254 253 254 256 256 257 257 258 258 259 260 260 262 263 261 261 260 263 265 267 267 266 267 266 267
276 275 274 271 271 272 273 271 270 269 266 265 263 262 263 264 263 260 259 258 256 257 258 258 258 259 260 260 261 261 262 263 262 262 262 261 262 264 266 267 267 267 266
273 274 274 271 271 272 270 269 269 267 264 263 262 263 264 265 264 262 261 260 259 259 260 260 259 260 262 261 261 264 264 263 263 263 262 262 263 264 266 267 268 267 267
272 271 272 270 270 270 266 267 267 265 266 265 264 266 268 267 264 264 262 262 262 261 261 261 261 259 260 261 263 265 264 263 263 263 263 264 265 265 265 267 267 268 268
269 269 268 270 271 267 265 267 265 268 269 267 269 268 268 267 266 266 263 262 263 263 263 263 263 261 260 262 263 265 265 263 262 264 264 264 264 266 267 267 267 268 269
271 271 270 269 265 263 264 264 265 268 271 269 269 268 269 268 267 267 265 264 263 262 263 264 265 265 264 264 263 263 264 266 265 264 265 266 265 266 267 267 267 267 267
271 269 271 266 260 259 261 265 265 267 269 270 269 270 271 269 268 267 265 263 264 265 265 264 263 265 266 265 264 263 264 266 267 266 265 266 267 268 267 267 267 266 267
268 267 268 264 261 263 263 263 265 267 269 270 270 270 269 269 268 267 265 263 264 265 265 264 264 264 265 268 268 267 266 265 266 267 266 265 266 268 268 267 266 265 265
264 265 263 262 263 264 265 265 266 268 269 271 272 271 270 270 270 268 265 264 264 266 266 268 268 267 266 266 268 268 267 266 266 266 266 265 266 268 268 267 265 264 264
264 264 263 262 264 265 266 268 269 271 272 273 273 272 271 272 271 269 267 267 267 267 268 269 268 266 266 266 267 267 268 269 267 266 266 264 264 267 267 266 265 263 266
265 264 263 263 263 266 268 269 270 270 271 273 274 274 273 272 271 271 270 269 269 270 270 269 268 267 266 265 265 265 267 267 268 267 267 265 263 263 265 267 266 265 266
265 265 264 265 267 268 269 269 269 271 271 272 274 275 275 273 273 271 270 270 270 270 270 269 269 268 267 265 264 265 265 265 267 267 268 266 263 263 264 265 265 265 266
266 267 266 268 270 271 270 270 270 272 271 273 276 276 275 275 274 272 271 270 270 270 270 270 269 269 267 265 264 263 262 264 265 264 265 266 265 264 264 265 265 265 265
268 267 269 271 272 273 272 271 271 272 274 276 278 278 277 276 275 274 273 272 272 272 272 271 270 268 266 264 263 263 263 263 264 263 262 265 266 265 265 266 265 264 265
269 268 269 271 272 272 274 273 274 275 276 277 279 280 279 278 277 276 275 274 273 273 272 272 270 268 267 265 263 263 263 263 263 264 263 263 264 265 265 266 267 266 265
270 269 269 269 269 270 274 275 276 276 276 277 280 280 280 279 278 276 276 276 274 272 271 270 270 269 269 267 265 264 263 263 263 263 262 262 263 265 265 266 267 268 266
272 273 272 269 268 271 273 275 275 276 277 279 281 281 280 279 278 277 277 277 275 272 271 270 270 270 270 269 267 266 265 264 263 263 262 262 262 263 264 266 267 268 267
271 274 276 273 271 273 275 276 276 276 277 279 281 282 281 281 279 278 277 277 276 273 272 271 271 270 270 270 268 267 266 265 264 264 263 263 263 263 263 265 266 266 267
269 272 276 276 276 278 279 279 277 277 278 279 282 283 283 282 282 281 280 280 279 277 276 275 273 272 272 271 269 268 267 267 266 265 265 264 264 264 264 264 265 266 266
272 274 276 278 277 280 281 280 278 279 281 282 284 285 284 285 284 283 282 281 280 280 278 276 275 274 273 272 270 269 270 269 268 267 266 266 266 266 265 264 264 265 266
276 278 279 279 280 280 280 281 280 280 281 282 284 284 285 285 284 284 284 283 282 280 278 277 276 276 275 274 272 272 272 272 271 269 268 267 267 268 266 265 265 266 267
279 281 280 279 280 281 281 281 282 282 282 283 285 285 283 283 283 283 284 283 284 283 282 280 280 279 277 276 275 275 275 274 273 272 270 269 269 269 268 267 267 267 268
281 281 279 278 279 281 283 283 284 285 285 286 285 285 283 283 283 284 284 283 284 284 284 284 283 283 282 281 279 278 277 276 275 273 272 271 271 270 270 270 270 270 269
281 282 281 278 278 281 283 283 284 284 284 284 283 284 284 284 285 284 284 284 284 285 287 287 286 285 285 284 282 280 279 278 277 277 276 274 273 272 272 271 271 271 272
Height
5802 5802 5802 5802 5801 5801 5801 5801 5801 5801 5801 5802 5802 5802 5803 5803 5804 5805 5806 5807 5808 5809 5810 5811 5812 5813 5814 5815 5815 5816 5816 5817 5817 5818 5818 5819 5819 5819 5819 5819 5819 5819 5819
5795 5795 5795 5795 5795 5795 5795 5795 5796 5795 5795 5796 5796 5796 5797 5798 5798 5799 5800 5801 5802 5803 5804 5805 5806 5807 5808 5809 5810 5810 5811 5811 5812 5812 5813 5813 5813 5814 5814 5814 5814 5814 5814
5789 5789 5788 5788 5788 5789 5789 5789 5789 5789 5789 5790 5790 5791 5791 5792 5792 5793 5794 5795 5796 5797 5798 5799 5800 5801 5802 5802 5803 5804 5804 5805 5805 5806 5807 5807 5807 5808 5808 5808 5808 5808 5808
5782 5782 5782 5782 5782 5782 5782 5782 5783 5783 5783 5784 5784 5785 5785 5786 5786 5787 5787 5788 5789 5790 5791 5792 5793 5794 5795 5796 5796 5797 5797 5798 5799 5800 5800 5801 5801 5801 5802 5802 5802 5802 5802
5776 5776 5775 5775 5775 5775 5776 5776 5776 5776 5777 5777 5778 5779 5779 5779 5780 5780 5780 5781 5782 5783 5784 5785 5786 5787 5788 5788 5789 5790 5791 5791 5792 5793 5793 5794 5794 5795 5795 5796 5796 5796 5796
5769 5769 5769 5769 5769 5769 5769 5769 5770 5770 5771 5771 5772 5772 5772 5773 5773 5773 5774 5775 5775 5776 5777 5778 5779 5780 5781 5781 5782 5783 5784 5785 5786 5786 5786 5787 5787 5788 5788 5789 5789 5789 5789
5763 5763 5762 5763 5763 5763 5763 5764 5764 5765 5765 5766 5766 5766 5766 5766 5767 5767 5768 5768 5769 5769 5770 5771 5772 5773 5773 5775 5775 5776 5776 5777 5778 5779 5779 5780 5780 5781 5782 5782 5782 5782 5782
5757 5756 5756 5757 5757 5757 5758 5758 5758 5759 5759 5760 5760 5760 5760 5760 5760 5761 5761 5761 5762 5762 5763 5764 5765 5766 5767 5767 5768 5769 5769 5770 5770 5771 5772 5772 5773 5773 5774 5774 5774 5774 5775
5751 5751 5751 5751 5752 5752 5753 5753 5753 5754 5754 5754 5754 5754 5754 5754 5754 5754 5754 5755 5755 5756 5756 5757 5758 5759 5760 5760 5761 5762 5762 5763 5763 5763 5763 5764 5765 5765 5765 5766 5766 5767 5767
5746 5746 5746 5746 5746 5747 5747 5747 5747 5748 5748 5747 5747 5747 5747 5747 5747 5747 5748 5748 5749 5749 5750 5750 5751 5751 5752 5753 5753 5754 5754 5755 5755 5755 5756 5756 5756 5756 5756 5757 5757 5758 5759
5740 5740 5740 5741 5741 5741 5741 5741 5741 5741 5741 5741 5740 5740 5740 5740 5740 5740 5741 5742 5742 5742 5743 5743 5743 5744 5744 5745 5745 5746 5746 5746 5747 5747 5747 5748 5748 5748 5748 5749 5749 5750 5751
5734 5734 5734 5735 5735 5735 5735 5735 5734 5734 5734 5734 5734 5733 5733 5733 5733 5733 5733 5734 5735 5735 5735 5736 5736 5736 5736 5737 5737 5738 5738 5738 5738 5739 5739 5739 5740 5740 5741 5741 5742 5742 5743
5727 5728 5728 5729 5728 5728 5728 5728 5728 5727 5727 5727 5727 5727 5726 5726 5726 5725 5726 5726 5726 5727 5727 5727 5727 5727 5727 5728 5729 5729 5730 5730 5731 5731 5731 5731 5732 5732 5733 5733 5734 5734 5735
5721 5721 5721 5722 5722 5721 5721 5721 5721 5721 5720 5720 5720 5719 5719 5718 5718 5718 5718 5718 5718 5718 5718 5718 5718 5718 5718 5719 5719 5720 5721 5721 5722 5722 5723 5723 5723 5724 5725 5725 5726 5726 5727
5714 5714 5715 5715 5715 5715 5714 5714 5714 5714 5713 5713 5713 5712 5711 5711 5710 5710 5709 5709 5709 5709 5709 5709 5709 5709 5709 5709 5710 5710 5711 5712 5713 5714 5714 5714 5715 5715 5716 5717 5717 5718 5719
5708 5708 5708 5708 5708 5707 5707 5707 5706 5706 5706 5705 5705 5704 5703 5702 5701 5701 5700 5700 5699 5699 5699 5699 5699 5699 5700 5700 5701 5701 5702 5703 5704 5704 5705 5706 5706 5707 5707 5708 5708 5709 5709
5701 5700 5700 5701 5700 5700 5700 5699 5699 5699 5698 5697 5696 5695 5694 5693 5692 5692 5691 5690 5690 5690 5690 5690 5690 5690 5690 5691 5691 5692 5693 5694 5694 5695 5696 5697 5697 5698 5698 5699 5699 5700 5700
5694 5694 5694 5694 5693 5693 5693 5692 5692 5691 5691 5690 5689 5687 5686 5685 5684 5683 5682 5681 5681 5681 5681 5681 5681 5681 5681 5682 5682 5683 5683 5684 5684 5685 5686 5687 5688 5689 5689 5690 5690 5691 5691
5688 5687 5687 5687 5687 5687 5686 5686 5685 5684 5684 5682 5681 5679 5678 5677 5675 5674 5673 5673 5672 5672 5672 5672 5672 5672 5672 5672 5673 5673 5674 5674 5675 5675 5676 5677 5678 5678 5679 5680 5681 5681 5681
5682 5682 5681 5681 5681 5680 5680 5679 5678 5677 5676 5675 5674 5672 5671 5669 5668 5667 5666 5665 5664 5663 5663 5663 5663 5663 5663 5663 5663 5663 5664 5664 5665 5665 5666 5667 5667 5668 5669 5670 5670 5671 5672
5676 5676 5675 5675 5674 5674 5673 5672 5671 5670 5669 5667 5666 5665 5663 5662 5661 5660 5658 5657 5656 5656 5655 5655 5654 5654 5654 5654 5654 5654 5654 5655 5655 5655 5656 5656 5657 5658 5658 5659 5660 5661 5661
5670 5669 5669 5668 5668 5667 5666 5665 5664 5663 5662 5660 5659 5658 5656 5655 5653 5652 5651 5650 5649 5648 5648 5647 5646 5646 5645 5645 5644 5644 5644 5644 5644 5645 5646 5646 5647 5647 5648 5649 5649 5650 5650
5663 5663 5662 5662 5661 5660 5659 5658 5657 5656 5655 5654 5652 5651 5649 5648 5647 5646 5645 5643 5642 5641 5640 5639 5639 5638 5637 5636 5635 5635 5635 5634 5634 5634 5635 5635 5636 5637 5637 5638 5638 5639 5639
5656 5656 5655 5655 5654 5653 5652 5651 5650 5649 5648 5647 5645 5644 5643 5641 5640 5639 5638 5636 5635 5634 5633 5632 5631 5629 5628 5627 5627 5626 5625 5625 5624 5624 5625 5625 5625 5626 5626 5627 5627 5627 5628
5649 5649 5648 5648 5647 5646 5645 5644 5643 5642 5641 5639 5638 5637 5636 5635 5633 5632 5631 5629 5628 5627 5625 5624 5623 5622 5620 5619 5618 5617 5616 5616 5615 5615 5615 5615 5615 5615 5615 5616 5616 5616 5616
5642 5642 5641 5641 5640 5639 5638 5637 5636 5635 5633 5632 5631 5630 5628 5627 5626 5625 5623 5622 5621 5619 5618 5616 5615 5614 5613 5611 5610 5609 5608 5607 5606 5605 5605 5604 5604 5604 5604 5604 5604 5604 5604